Weather History for Charleroi, Belgium

Change the Weather History Date:

Sunday, March 3, 2013

  Actual Average Record
Temperature  
Mean Temperature 36 °F -  
Max Temperature 41 °F 50 °F 55 °F (1998)
Min Temperature 32 °F 36 °F 26 °F (2005)
Degree Days  
Heating Degree Days 28    
Moisture  
Dew Point 29 °F    
Average Humidity 76    
Maximum Humidity 87    
Minimum Humidity 61    
Precipitation  
Precipitation 0.00 in - - ()
Sea Level Pressure  
Sea Level Pressure 30.20 in    
Wind  
Wind Speed 8 mph ()    
Max Wind Speed 14 mph    
Max Gust Speed -    
Visibility 4.8 miles    
Events      
Averages and records for this station are not official NWS values.
T = Trace of Precipitation, MM = Missing Value Source: Averaged Metar Reports

Daily Weather History Graph

Daily Weather History Graph

Search for Another Location

Airport:

Trip Planner

Search our weather history database for the weather conditions in past years. The results will help you decide how hot, cold, wet, or windy it might be!

Date:

Astronomy

Mar. 03, 2013 Rise Set
Actual Time 7:21 AM CET 6:27 PM CET
Civil Twilight 6:49 AM CET 7:00 PM CET
Nautical Twilight 6:11 AM CET 7:37 PM CET
Astronomical Twilight 5:33 AM CET 8:15 PM CET
Moon 12:26 AM CET (3/3) 9:44 AM CET (3/3)
Length of Visible Light 12h 10m
Length of Day
11h 05m
Waning Gibbous, 66% of the Moon is Illuminated
Mar 3
Waning Gibbous
Mar 4
Last Quarter
Mar 11
New
Mar 19
First Quarter
Mar 27
Full

Hourly Weather History & Observations

Time (CET) Temp. Windchill Dew Point Humidity Pressure Visibility Wind Dir Wind Speed Gust Speed Precip Events Conditions
12:20 AM 33.8 °F 27.7 °F 26.6 °F 75% 30.24 in 5.0 mi NE 6.9 mph - N/A   Mostly Cloudy
12:50 AM 33.8 °F 28.6 °F 26.6 °F 75% 30.24 in 5.0 mi NE 5.8 mph - N/A   Mostly Cloudy
1:00 AM 33 °F - 26 °F 68% 30.29 in 5 mi NE 4.5 mph - -   Mostly Cloudy
1:20 AM 32.0 °F 25.6 °F 26.6 °F 80% 30.24 in 5.0 mi NE 6.9 mph - N/A   Mostly Cloudy
1:50 AM 32.0 °F 25.6 °F 26.6 °F 80% 30.24 in 4.3 mi NE 6.9 mph - N/A   Mostly Cloudy
2:20 AM 32.0 °F 24.8 °F 26.6 °F 80% 30.24 in 4.3 mi ENE 8.1 mph - N/A   Mostly Cloudy
2:50 AM 32.0 °F 24.8 °F 26.6 °F 80% 30.24 in 4.3 mi NE 8.1 mph - N/A   Mostly Cloudy
3:20 AM 32.0 °F 26.4 °F 26.6 °F 80% 30.24 in 4.3 mi NE 5.8 mph - N/A   Mostly Cloudy
3:50 AM 32.0 °F 24.2 °F 26.6 °F 80% 30.24 in 4.3 mi NE 9.2 mph - N/A   Mostly Cloudy
4:00 AM 32 °F - 26 °F 71% 30.28 in 4 mi NE 8.9 mph - -   Overcast
4:20 AM 32.0 °F 25.6 °F 24.8 °F 75% 30.21 in 4.3 mi ENE 6.9 mph - N/A   Mostly Cloudy
4:50 AM 32.0 °F 25.6 °F 26.6 °F 80% 30.21 in 3.7 mi NE 6.9 mph - N/A   Mostly Cloudy
5:20 AM 32.0 °F 25.6 °F 26.6 °F 80% 30.21 in 3.7 mi NE 6.9 mph - N/A   Mostly Cloudy
5:50 AM 32.0 °F 24.8 °F 24.8 °F 75% 30.21 in 3.7 mi NE 8.1 mph - N/A   Mostly Cloudy
6:20 AM 32.0 °F 25.6 °F 26.6 °F 80% 30.21 in 3.7 mi NE 6.9 mph - N/A   Mostly Cloudy
7:20 AM 32.0 °F 25.6 °F 26.6 °F 80% 30.21 in 3.1 mi East 6.9 mph - N/A   Mostly Cloudy
7:50 AM 32.0 °F 26.4 °F 26.6 °F 80% 30.21 in 3.1 mi East 5.8 mph - N/A   Mostly Cloudy
8:20 AM 32.0 °F 25.6 °F 26.6 °F 80% 30.21 in 3.1 mi East 6.9 mph - N/A   Mostly Cloudy
8:50 AM 33.8 °F 27.0 °F 26.6 °F 75% 30.24 in 3.7 mi East 8.1 mph - N/A   Mostly Cloudy
9:20 AM 33.8 °F 27.7 °F 26.6 °F 75% 30.24 in 3.7 mi ENE 6.9 mph - N/A   Mostly Cloudy
9:50 AM 33.8 °F 26.4 °F 28.4 °F 81% 30.21 in 3.7 mi ENE 9.2 mph - N/A   Mostly Cloudy
10:00 AM 34 °F - 28 °F 69% 30.27 in 4 mi ENE 8.9 mph - -   Mostly Cloudy
10:20 AM 35.6 °F 28.6 °F 28.4 °F 75% 30.21 in 3.7 mi ENE 9.2 mph - N/A   Mostly Cloudy
10:50 AM 35.6 °F 28.6 °F 28.4 °F 75% 30.21 in 3.7 mi ENE 9.2 mph - N/A   Mostly Cloudy
11:20 AM 37.4 °F 30.8 °F 28.4 °F 70% 30.21 in 3.7 mi ENE 9.2 mph - N/A   Mostly Cloudy
11:50 AM 37.4 °F 30.8 °F 30.2 °F 75% 30.21 in 3.7 mi ENE 9.2 mph - N/A   Mostly Cloudy
12:20 PM 37.4 °F 30.8 °F 30.2 °F 75% 30.21 in 4.3 mi ENE 9.2 mph - N/A   Mostly Cloudy
12:50 PM 39.2 °F 32.0 °F 30.2 °F 70% 30.21 in 4.3 mi ENE 11.5 mph - N/A   Mostly Cloudy
1:00 PM 39 °F - 31 °F 63% 30.26 in 4 mi ENE 11.2 mph - -   Mostly Cloudy
1:20 PM 41.0 °F 33.5 °F 32.0 °F 70% 30.21 in 5.0 mi ENE 13.8 mph - N/A   Mostly Cloudy
1:50 PM 41.0 °F 34.3 °F 32.0 °F 70% 30.21 in 5.0 mi ENE 11.5 mph - N/A   Mostly Cloudy
2:20 PM 39.2 °F 31.6 °F 32.0 °F 75% 30.18 in 5.0 mi ENE 12.7 mph - N/A   Mostly Cloudy
2:50 PM 39.2 °F 32.0 °F 32.0 °F 75% 30.18 in 5.0 mi ENE 11.5 mph - N/A   Mostly Cloudy
3:20 PM 39.2 °F 31.6 °F 32.0 °F 75% 30.18 in 5.0 mi ENE 12.7 mph - N/A   Mostly Cloudy
3:50 PM 39.2 °F 31.2 °F 32.0 °F 75% 30.18 in 6.2 mi East 13.8 mph - N/A   Mostly Cloudy
4:00 PM 40 °F - 31 °F 61% 30.20 in 6 mi East 13.4 mph - -   Mostly Cloudy
4:20 PM 41.0 °F 33.5 °F 30.2 °F 65% 30.15 in 6.2 mi East 13.8 mph - N/A   Mostly Cloudy
4:50 PM 39.2 °F 31.2 °F 32.0 °F 75% 30.15 in 6.2 mi ENE 13.8 mph - N/A   Mostly Cloudy
5:20 PM 39.2 °F 31.6 °F 32.0 °F 75% 30.15 in 6.2 mi East 12.7 mph - N/A   Mostly Cloudy
5:50 PM 39.2 °F 31.6 °F 32.0 °F 75% 30.15 in 6.2 mi ENE 12.7 mph - N/A   Mostly Cloudy
6:20 PM 39.2 °F 32.5 °F 32.0 °F 75% 30.15 in 6.2 mi ENE 10.4 mph - N/A   Mostly Cloudy
6:50 PM 39.2 °F 32.0 °F 32.0 °F 75% 30.15 in 6.2 mi East 11.5 mph - N/A   Scattered Clouds
7:00 PM 38 °F - 31 °F 69% 30.20 in 7 mi East 11.2 mph - -   Partly Cloudy
7:20 PM 37.4 °F 30.3 °F 32.0 °F 81% 30.15 in 6.2 mi ENE 10.4 mph - N/A   Mostly Cloudy
7:50 PM 35.6 °F 29.2 °F 32.0 °F 87% 30.15 in 6.2 mi ENE 8.1 mph - N/A   Scattered Clouds
8:20 PM 35.6 °F 29.9 °F 32.0 °F 87% 30.15 in 5.0 mi ENE 6.9 mph - N/A   Scattered Clouds
8:50 PM 35.6 °F 29.9 °F 30.2 °F 81% 30.15 in 4.3 mi ENE 6.9 mph - N/A   Scattered Clouds
9:20 PM 35.6 °F 28.6 °F 30.2 °F 81% 30.15 in 5.0 mi ENE 9.2 mph - N/A   Scattered Clouds
9:50 PM 33.8 °F 27.0 °F 30.2 °F 87% 30.15 in 5.0 mi East 8.1 mph - N/A   Scattered Clouds
10:00 PM 34 °F - 30 °F 79% 30.19 in 5 mi East 8.9 mph - -   Partly Cloudy
10:20 PM 33.8 °F 27.0 °F 30.2 °F 87% 30.15 in 6.2 mi East 8.1 mph - N/A   Scattered Clouds
10:50 PM 33.8 °F 27.7 °F 28.4 °F 81% 30.12 in 6.2 mi East 6.9 mph - N/A   Scattered Clouds
11:20 PM 33.8 °F 27.0 °F 28.4 °F 81% 30.12 in 6.2 mi East 8.1 mph - N/A   Scattered Clouds
11:50 PM 32.0 °F 24.8 °F 28.4 °F 87% 30.12 in 5.6 mi East 8.1 mph - N/A   Scattered Clouds